Flag for United Arab Emirates Weather past 2 weeks in Dubai, Dubai, United Arab Emirates

Now
97 °F

Clear.


Feels Like: 98 °F
Forecast: 97 / 106 °F
Wind: 6 mph from South

Location: Dubai International Airport

Current Time: Aug 2, 2015 at 6:50:05 AM

Latest Report: Aug 2, 2015 at 6:00 AM


Visibility: 5 mi

Pressure: 29.59 "Hg

Humidity: 32%

Dew point: 63 °F

Historic Weather in Dubai — Graph

°F

Dubai temperature yesterday

Maximum temperature yesterday: 106 °F (at 12:00 PM)
Minimum temperature yesterday: 95 °F (at 1:00 AM)
Average temperature yesterday: 99 °F

Past Weeks' High & Low Weather Summary

 TemperatureHumidityPressure
High113 °F (Jul 24, 2:00 PM)80% (Jul 19, 3:00 AM)29.59 "Hg (Jul 19, 3:00 AM)
Low86 °F (Jul 20, 6:00 AM)10% (Jul 20, 6:00 PM)29.30 "Hg (Jul 18, 4:00 PM)
Average101 °F35%29.46 "Hg
* Reported Jul 18 6:00 AM — Aug 2 6:00 AM, Dubai, Weather by CustomWeather, © 2015

Note: Actual official high and low records may vary slightly from our data, if they occured in-between our weather recording intervals... More about our weather records

Advertising

Dubai weather history for previous 24 hours

 ConditionsComfort  
Time TempWeatherWind HumidityBarometerVisibility
6:00 AM
Sun, Aug 2
97 °FClear.6 mph32%29.59 "Hg5 mi
5:00 AM97 °FClear.1 mph30%29.56 "Hg10 mi
4:00 AM99 °FClear.2 mph29%29.53 "Hg10 mi
3:00 AM99 °FClear.8 mph27%29.53 "Hg10 mi
2:00 AM99 °FClear.10 mph27%29.53 "Hg10 mi
1:00 AM100 °FClear.8 mph27%29.53 "Hg10 mi
12:00 AM100 °FPassing clouds.13 mph29%29.53 "HgN/A
11:00 PM
Sat, Aug 1
100 °FClear.12 mph33%29.53 "Hg4 mi
10:00 PM100 °FClear.12 mph31%29.53 "Hg4 mi
9:00 PM100 °FClear.7 mph31%29.53 "Hg4 mi
8:00 PM100 °FClear.8 mph33%29.53 "Hg4 mi
7:00 PM99 °FDuststorm.8 mph39%29.50 "Hg2 mi
6:00 PM97 °FDuststorm.10 mph47%29.50 "Hg2 mi
5:00 PM99 °FDuststorm.16 mph42%29.50 "Hg2 mi
4:00 PM100 °FDuststorm.17 mph35%29.50 "Hg2 mi
3:00 PM102 °FDuststorm.16 mph27%29.50 "Hg2 mi
2:00 PM104 °FDuststorm.16 mph24%29.53 "Hg2 mi
1:00 PM104 °FDuststorm.13 mph28%29.53 "Hg3 mi
12:00 PM106 °FDuststorm.10 mph20%29.56 "Hg3 mi
11:00 AM104 °FDuststorm.12 mph21%29.56 "Hg3 mi
10:00 AM100 °FClear.13 mph25%29.56 "Hg5 mi
9:00 AM99 °FClear.12 mph25%29.56 "Hg5 mi
8:00 AM95 °FClear.10 mph28%29.56 "Hg4 mi
7:00 AM95 °FClear.10 mph30%29.53 "Hg4 mi
6:00 AM95 °FClear.7 mph34%29.53 "Hg4 mi
Weather by CustomWeather, © 2015

See weather overviewHow to use our weather pages